Regional Weather Roundup
Issued by NWS

Home | Current Version | Previous Version | Graphics & Text | Print | Product List | Glossary On
Versions: 1 2 3 4 5 6 7 8 9 10 11 12 13 14 15 16 17 18 19 20 21 22 23 24 25 26 27 28 29 30 31 32 33 34 35 36 37 38 39 40 41 42 43 44 45 46 47 48 49 50
000
ASUS45 KBOI 281610
RWRID
WEATHER ROUNDUP FOR IDAHO
NATIONAL WEATHER SERVICE BOISE ID
1000 AM MDT MON JUL 28 2014

NOTE: "FAIR" INDICATES FEW OR NO CLOUDS BELOW 12000 FEET
WITH NO SIGNIFICANT WEATHER AND/OR OBSTRUCTIONS TO VISIBILITY

IDZ012-014-281700-
SOUTHWEST IDAHO


CITY           SKY/WX    TMP DP  RH WIND       PRES   REMARKS
BOISE          PTSUNNY   77  46  33 W3        30.08R
CALDWELL       PTSUNNY   73  50  43 E5        30.09R
MOUNTAIN HOME  CLOUDY    81  40  23 SE7       30.10R
$$

IDZ016-017-281700-
SOUTHCENTRAL IDAHO


CITY           SKY/WX    TMP DP  RH WIND       PRES   REMARKS
BURLEY         CLOUDY    72  49  44 N5        30.17R
JEROME         CLOUDY    73  49  42 NE8       30.18R
TWIN FALLS     CLOUDY    79  43  27 S6        30.18R
$$

IDZ019>023-281700-
SOUTHEAST IDAHO


CITY           SKY/WX    TMP DP  RH WIND       PRES   REMARKS
IDAHO FALLS    PTSUNNY   75  53  46 NW9       30.23S
POCATELLO      SUNNY     73  39  29 CALM      30.22R
REXBURG        PTSUNNY   71  46  40 E6        30.25S
$$

IDZ006-010-011-018-031-032-281700-
CENTRAL IDAHO MOUNTAINS


CITY           SKY/WX    TMP DP  RH WIND       PRES   REMARKS
MCCALL         PTSUNNY   75  42  30 NW6       30.23S
HAILEY         CLOUDY    73  46  38 CALM      30.27R
STANLEY          N/A     65  35  33 E3        30.38S
SALMON         PTSUNNY   63  43  48 CALM      30.23F
CHALLIS        PTSUNNY   70  33  25 SW5       30.27F
$$

IDZ002-004-006-007-026-281700-
NORTHERN IDAHO


CITY           SKY/WX    TMP DP  RH WIND       PRES   REMARKS
LEWISTON       PTSUNNY   80  50  34 CALM      30.06F
LOWELL           N/A     68  52  56 CALM      30.14F
COEUR D`ALENE  PTSUNNY   72  50  46 E15       30.12F
MULLAN PASS    PTSUNNY   71  41  33 VRB3      30.37S
$$



USA.gov is the U.S. government's official web portal to all federal, state and local government web resources and services.